Satellite: METEOR-M
Catalog number: 35865
Epoch time: 10364.82289187
Element set: 969
Inclination: 098.7321 deg
RA of node: 056.9377 deg
Eccentricity: 0.0002625
Arg of perigee: 141.6013 deg
Mean anomaly: 218.5286 deg
Mean motion: 14.21833926 rev/day
Decay rate: 1.76e-06 rev/day^2
Epoch rev: 6666
Checksum: 327
Satellite: RS-38
Catalog number: 35869
Epoch time: 10364.63183949
Element set: 982
Inclination: 098.7304 deg
RA of node: 056.7893 deg
Eccentricity: 0.0004666
Arg of perigee: 148.3558 deg
Mean anomaly: 211.7874 deg
Mean motion: 14.21997055 rev/day
Decay rate: 1.77e-06 rev/day^2
Epoch rev: 6664
Checksum: 363
/EX
More information about the Keps
mailing list